Location: Bou Ouachlou
(32.7770°N, 5.6009°W)
Time: 01:42:13
(UTC+00:00)

ARIANE 5 R/B - Pass Details

Date: 07 June 2020
Orbit: 748 x 796 km, 98.6° (Epoch: 05 July)

Event Time Altitude Azimuth Distance (km) Brightness Sun altitude
Rises 02:56:28 0° 15° (NNE) 3,204 6.8 -23.2°
Reaches altitude 10° 02:58:47 10° 17° (NNE) 2,273 5.9 -22.9°
Maximum altitude 03:03:46 74° 102° (ESE) 779 2.5 -22.3°
Enters shadow 03:05:23 43° 176° (S) 1,042 2.8 -22.0°
